Погода в Рославле

Погода в Рославле : погода сейчас, прогноз погоды и архив. Всё, что Вы хотите узнать о погоде в Рославле!

Хотите узнать прогноз погоды в Рославле? Тогда Вам сюда: Погода в Рославле

Поиск расширенной информации на нашем сайте:

Полезная информация:

Другие новости

Новости СМИ2

Главная страница сайта

Новости сайта

03.07.2017

Напоминаем, что на нашем специализированном сайте Метеоцентр.Азия вы можете получить высокодетализированные автоматические прогнозы погоды по пунктам России, СНГ и мира в авиационном формате (включающие направление и скорость ветра, видимость, явления погоды, количество и форму облачности, нижнюю и верхнюю границу облачности).

Рекомендуем:

Погода в Рославле - сегодня

Время (UTC), дата Ветер
(°,м/с) 
Видим.   Явления Облачность Т
(°С)
Тd
(°С)
f(%) Тe
(°С)
Pmin
(гПа)
dP
(гПа)
Po
(мм)
O2
(г/м3)
Тmin Tmax R s Состояние
почвы
09 15.09.19 250 (З) 6{10}  20000 м    9/9 600 м верхняя 
[Cu hum|Cs]
+13.9 +5.3 56 +13  1019.1  -1.5  744  285           
12 15.09.19 240 (ЮЗ) 6-11{11}  20000 м    10/10 600 м 
[Cu Sc]
+14 +6 58 +13  1016.6  -2.4  743  284           
15 15.09.19 230 (ЮЗ) 4{12}  15000 м  слаб. дождь  10/10 450 м 
[Frnb|Ns]
+12.7 +6.4 65 +12  1013.9  -2.8  740  284           
18 15.09.19 210 (ЮЗ) 50000 м  {дождь}  10/10 450 м 
[Frnb|Ns]
+12.4 +5.1 61 +12  1010.5  -3.3  738  284    +14.3  0.0     
21 15.09.19 220 (ЮЗ) 19000 м  слаб. дождь  10/10 450 м 
[Frnb|Ns]
+11.9 +5.7 66 +12  1008.4  -2.1  736  283           
00 16.09.19 230 (ЮЗ) 6{10}  8000 м  слаб. дождь  10/10 450 м 
[Frnb|Ns]
+9.8 +8.2 90 +8  1006.4  -2.1  735  284           
03 16.09.19 230 (ЮЗ) 5{10}  8000 м  слаб. дождь  10/10 450 м 
[Frnb|Ns]
+9.7 +8.4 92 +8  1004.6  -1.7  733  284  +9.6       
06 16.09.19 250 (З) 20000 м  {дождь}  5/1 600 м средняя 
[Cu med, cong|Ac trans]
+11.6 +8.8 83 +10  1003.5  -0.9  733  282  +9.6      влажная 
09 16.09.19 260 (З) 3{13}  20000 м    9/6 600 м средняя 
[Cu med, cong|Ac trans]
+13.3 +8.7 74 +13  1003.1  -0.2  733  280           
12 16.09.19 270 (З) 7-14{15}  20000 м  в посл. час ливневой дождь  8/5 1000 м средняя 
[Cu med, cong|Ac cuf]
+13.9 +6.2 60 +13  1003.6  0.6  733  280           
15 16.09.19 260 (З) 5-10{14}  20000 м    8/4 600 м средняя 
[Cu med, cong|Ac trans]
+14.2 +4.9 53 +14  1003.5  -0.1  733  280         
18 16.09.19 260 (З) 3{12}  26000 м  в посл. час ливневой дождь  9/6 600 м средняя 
[Cu med, cong|Ac cuf]
+10.5 +7.8 83 +10  1004.3  0.4  733  283    +15.8  0.3     
21 16.09.19 250 (З) 50000 м    9/0 средняя 
[Ac trans]
+10.8 +6.1 73 +10  1003.4  -0.8  733  283           
00 17.09.19 230 (ЮЗ) 28000 м  {ливн. осадки}  5/0 средняя, верхняя 
[Ac trans|Ci fib]
+7.9 +6 88 +7  1003.1  -0.6  732  286           
03 17.09.19 250 (З) 19000 м    3/0 верхняя 
[Ci fib]
+6.5 +4.9 89 +5  1003  -0.2  732  287  +6.3       
06 17.09.19 260 (З) 20000 м    3/3 300 м 
[Cu hum]
+8.9 +5.7 80 +7  1002.8  0.1  732  285  +6.3      влажная 
09 17.09.19 260 (З) 7-11{12}  20000 м    6/6 300 м 
[Cu med, cong]
+13.3 +5 57 +12  1002.2  -0.2  732  280           
12 17.09.19 280 (З) 6{15}  20000 м  {ливн. осадки}  6/6 300 м 
[Cu med, cong]
+13.7 +3 48 +13  1002.1  -0.1  732  280           
15 17.09.19 250 (З) 4{13}  20000 м    6/3 600 м средняя 
[Sc diur, vesp|Ac trans]
+11.3 +3.3 58 +11  1002.3  732  283      0.5     
18 17.09.19 210 (ЮЗ) 50000 м    9/0 верхняя 
[Ci fib]
+6.9 +4.5 85 +7  1002.9  0.2  732  287    +14.2  0.5     
21 17.09.19 210 (ЮЗ) 50000 м    10/0 средняя, верхняя 
[Ac trans|Ci fib]
+6.4 +4 85 +6  1001.5  -1.4  731  287           
00 18.09.19 200 (Ю) 30000 м  слаб. дождь  10/10 360 м 
[Frnb|Ns]
+7 +5.8 92 +6  1000.1  -1.4  730  286           
03 18.09.19 210 (ЮЗ) 20000 м  {ливн. осадки}  9/8 300 м средняя 
[Sc diur, vesp|Ac trans]
+6.9 +5.8 93 +7  998.3  -1.7  729  285  +6.1       
06 18.09.19 190 (Ю) 15000 м  дымка{ливн. осадки}  10/10 600 м 
[Sc]
+8.2 +6.5 89 +8  996.9  -1.3  728  284  +6.1      влажная 
09 18.09.19 250 (З) 8000 м  слаб. дождь  10/10 400 м 
[Frnb|Ns]
+8.1 +6.5 90 +8  996.7  -0.2  728  284           
Время (UTC), дата Ветер
(°,м/с) 
Видим.   Явления Облачность Т
(°С)
Тd
(°С)
f(%) Тe
(°С)
Pmin
(гПа)
dP
(гПа)
Po
(мм)
O2
(г/м3)
Тmin Tmax R s Состояние
почвы

Для получения пояснительной информации подведите курсор к названию столбца.

ПОГОДА в Рославле - архив

Всё, что Вы хотите узнать о погоде в Рославле - удобно и подробно!

Выберите нужную дату (начиная с 1 января 2018* года) и нажмите кнопку "Найти".
Будут отображены архивные сводки погоды по пункту Рославль, начиная с указанной даты.


Отображать данные в формате CSV (для использования в таблицах Excel)


Внимание! Наш архив погоды предназначен исключительно для личного некоммерческого использования в познавательных целях. Если Вам необходимы официальные справки о состоянии погоды (для производственных, юридических, коммерческих и т.п. целей), обращайтесь в органы Росгидромета.

*Примечание: данная дата относится к архиву по метеостанциям СССР (Россия, СНГ, Балтия).
Архив по метеостанциям Зарубежной Европы и Азии (кроме Китая) хранится 10 дней, по другим регионам земного шара (Китай, Африка, Америка, Австралия, Океания) - 1 день.

Рославль - район местоположения метеостанции


Название, широта, долгота, высота метеостанции:
Рославль 53.9°ш. 32.8°д. 224 м над ур. моря [Российская Федерация]

Дополнительная информация

В oтличие oт бoльшинства пoгoдных сайтoв мы публикуем пoдрoбную метеoинфoрмацию в детальнoм прoфессиoнальнoм фoрмате.

Характеристики температуры и влажнoсти вoздуха измеряются на высoте 2 м в тени вдали oт зданий и деревьев.
Скoрoсть ветра измеряется на высoте 10 м (на урoвне рoста челoвека скoрoсть ветра ниже в 1.5-2 раза). Если метеoстанция нахoдится в гoрoде или в лесу, тo скoрoсть ветра занижена на 2-4 м/с пo сравнению с oткрытым местoм. Скoрoсть ветра над акватoриями крупных рек и oзёр, а также на вершинах хoлмoв на 2-5 м/с выше, чем в oбычных услoвиях.
Атмoсфернoе давление в разных тoчках местнoсти мoжет значительнo oтличаться oт давления на метеoстанции, в зависимoсти oт услoвий рельефа (при пoдъёме на 10 м давление пoнижается примернo на 1 мм рт.ст.).